This is the latest recevied weather packets stored in our database for station/object IW2NIA-3. If no packets are shown the sender has not sent any weather packets the latest 10 day(s).
| Time | Temp. | Humidity | Pressure | Rain* | Wind** | Luminosity | Snow |
|---|---|---|---|---|---|---|---|
| 1777188816 | 16.67° C | 75% | 1016.4 hPa | 0 mm | - | - | - |
| 1777187912 | 16.11° C | 79% | 1016.3 hPa | 0 mm | - | - | - |
| 1777187022 | 15.56° C | 79% | 1016.1 hPa | 0 mm | - | - | - |
| 1777186117 | 15.56° C | 81% | 1016 hPa | 0 mm | - | - | - |
| 1777185214 | 14.44° C | 84% | 1016 hPa | 0 mm | - | - | - |
| 1777184313 | 13.89° C | 88% | 1016 hPa | 0 mm | - | - | - |
| 1777183409 | 12.78° C | 89% | 1015.9 hPa | 0 mm | - | - | - |
| 1777181610 | 10.56° C | 90% | 1015.7 hPa | 0 mm | - | - | - |
| 1777180725 | 10° C | 90% | 1015.5 hPa | 0 mm | - | - | - |
| 1777179814 | 9.44° C | 90% | 1015.2 hPa | 0 mm | - | - | - |
| 1777178915 | 9.44° C | 90% | 1015 hPa | 0 mm | - | - | - |
| 1777178023 | 8.89° C | 90% | 1015 hPa | 0 mm | - | - | - |
| 1777177113 | 9.44° C | 90% | 1014.9 hPa | 0 mm | - | - | - |
| 1777176223 | 9.44° C | 90% | 1014.8 hPa | 0 mm | - | - | - |
| 1777175317 | 8.89° C | 89% | 1014.7 hPa | 0 mm | - | - | - |
| 1777174421 | 8.89° C | 89% | 1014.6 hPa | 0 mm | - | - | - |
| 1777173517 | 9.44° C | 89% | 1014.6 hPa | 0 mm | - | - | - |
| 1777172614 | 10° C | 89% | 1014.6 hPa | 0 mm | - | - | - |
| 1777171726 | 10° C | 88% | 1014.5 hPa | 0 mm | - | - | - |
| 1777170819 | 10° C | 88% | 1014.6 hPa | 0 mm | - | - | - |
| 1777169912 | 10.56° C | 87% | 1014.7 hPa | 0 mm | - | - | - |
| 1777169011 | 11.11° C | 86% | 1014.8 hPa | 0 mm | - | - | - |
| 1777168112 | 11.11° C | 86% | 1014.8 hPa | 0 mm | - | - | - |
| 1777167223 | 11.67° C | 86% | 1014.8 hPa | 0 mm | - | - | - |
| 1777166318 | 11.67° C | 86% | 1014.8 hPa | 0 mm | - | - | - |
* Rain latest hour (hover to see other rain measurements)
** Current wind speed in m/s (hover to see current wind gust speed)